Location: Home
(42.5358°N, 72.7383°W)
Time: 11:21:23
(UTC-05:00)

S-56A Canister/Altair - Pass Details

Date: 06 December 2021
Orbit: 634 x 2499 km, 38.9° (Epoch: 22 January)

Event Time Altitude Azimuth Distance (km) Brightness Sun altitude
Rises 03:06:05 0° 276° (W) 4,298 - -43.4°
Reaches altitude 10° 03:09:33 10° 271° (W) 3,027 - -42.8°
Maximum altitude 03:16:09 46° 201° (SSW) 1,142 - -41.6°
Drops below altitude 10° 03:20:55 10° 128° (SE) 2,196 - -40.7°
Exits shadow 03:21:14 - 127° (SE) 2,311 10.4 -40.6°
Sets 03:23:05 0° 121° (ESE) 3,013 11.2 -40.3°
